Marrakech, Morocco

11:12 PM WET on December 14, 2017 (GMT +0000)
Marrakech

Weather History for GMMX - September, 2013

Change the Weather History Date:

Wednesday, September 25, 2013

  Actual Average Record
Temperature  
Mean Temperature 72 °F -  
Max Temperature 82 °F 82 °F 97 °F (2017)
Min Temperature 63 °F 59 °F 60 °F (2011)
Cooling Degree Days 8    
Growing Degree Days 22 (Base 50)    
Moisture  
Dew Point 63 °F    
Average Humidity 76    
Maximum Humidity 94    
Minimum Humidity 49    
Precipitation  
Precipitation 0.00 in 0.03 in - ()
Sea Level Pressure  
Sea Level Pressure 29.98 in    
Wind  
Wind Speed 6 mph ()    
Max Wind Speed 12 mph    
Max Gust Speed -    
Visibility 5.7 miles    
Events      
Averages and records for this station are not official NWS values.
T = Trace of Precipitation, MM = Missing Value Source: Averaged Metar Reports

Daily Weather History Graph

Daily Weather History Graph

Search for Another Location

Airport or City:

Trip Planner

Search our weather history database for the weather conditions in past years. The results will help you decide how hot, cold, wet, or windy it might be!

Date:

Astronomy

Sep. 25, 2013 Rise Set
Actual Time 7:22 AM WEST 7:24 PM WEST
Civil Twilight 6:57 AM WEST 7:49 PM WEST
Nautical Twilight 6:29 AM WEST 8:17 PM WEST
Astronomical Twilight 6:01 AM WEST 8:45 PM WEST
Moon 11:38 PM WEST (9/25) 12:57 PM WEST (9/25)
Length of Visible Light 12h 51m
Length of Day
12h 02m
Waning Gibbous, 66% of the Moon is Illuminated
Sep 25
Waning Gibbous
Sep 27
Last Quarter
Oct 5
New
Oct 12
First Quarter
Oct 19
Full

Hourly Weather History & Observations

Time (WEST) Temp. Heat Index Dew Point Humidity Pressure Visibility Wind Dir Wind Speed Gust Speed Precip Events Conditions
12:00 AM 71.6 °F - 64.4 °F 78% 30.01 in 6.2 mi WSW 5.8 mph - N/A   Partly Cloudy
12:30 AM 69.8 °F - 64.4 °F 83% 30.01 in 6.2 mi WSW 9.2 mph - N/A   Partly Cloudy
1:00 AM 68 °F - 64 °F 81% 29.95 in 6 mi WSW 11.5 mph - -   Scattered Clouds
1:00 AM 68.0 °F - 64.4 °F 88% 30.01 in 6.2 mi WSW 11.5 mph - N/A   Partly Cloudy
1:30 AM 68.0 °F - 62.6 °F 83% 30.01 in 6.2 mi WSW 10.4 mph - N/A   Partly Cloudy
2:00 AM 66.2 °F - 62.6 °F 88% 30.01 in 6.2 mi WSW 9.2 mph - N/A   Partly Cloudy
2:30 AM 66.2 °F - 62.6 °F 88% 30.01 in 6.2 mi WSW 9.2 mph - N/A   Partly Cloudy
3:00 AM 66.2 °F - 62.6 °F 88% 29.98 in 6.2 mi SW 8.1 mph - N/A   Partly Cloudy
3:30 AM 64.4 °F - 62.6 °F 94% 29.98 in 6.2 mi SW 6.9 mph - N/A   Unknown
4:00 AM 65 °F - 62 °F 86% 29.95 in 6 mi SW 5.8 mph - -  
4:00 AM 64.4 °F - 62.6 °F 94% 29.98 in 6.2 mi SW 5.8 mph - N/A   Unknown
4:30 AM 64.4 °F - 62.6 °F 94% 29.98 in - WSW 6.9 mph - N/A   Clear
5:00 AM 64.4 °F - 62.6 °F 94% 29.98 in - WSW 5.8 mph - N/A   Clear
5:30 AM 64.4 °F - 62.6 °F 94% 29.98 in - WSW 5.8 mph - N/A   Clear
6:07 AM 64.4 °F - 62.6 °F 94% 29.98 in 6.2 mi SW 4.6 mph - N/A   Mostly Cloudy
7:00 AM 65 °F - 62 °F 88% 29.94 in 6 mi WSW 3.5 mph - -   Mostly Cloudy
7:00 AM 64.4 °F - 62.6 °F 94% 29.98 in 6.2 mi WSW 3.5 mph - N/A   Mostly Cloudy
7:30 AM 64.4 °F - 62.6 °F 94% 29.98 in 6.2 mi WSW 3.5 mph - N/A   Mostly Cloudy
8:00 AM 64.4 °F - 62.6 °F 94% 29.98 in 6.2 mi WSW 3.5 mph - N/A   Mostly Cloudy
8:30 AM 66.2 °F - 62.6 °F 88% 30.01 in 6.2 mi WSW 3.5 mph - N/A   Mostly Cloudy
9:00 AM 66.2 °F - 62.6 °F 88% 30.01 in 6.2 mi SW 3.5 mph - N/A   Mostly Cloudy
9:30 AM 66.2 °F - 64.4 °F 94% 30.01 in 6.2 mi SW 3.5 mph - N/A   Mostly Cloudy
10:00 AM 67 °F - 64 °F 86% 29.97 in 6 mi West 3.5 mph - -   Mostly Cloudy
10:00 AM 66.2 °F - 64.4 °F 94% 30.01 in 6.2 mi WSW 3.5 mph - N/A   Mostly Cloudy
10:30 AM 68.0 °F - 64.4 °F 88% 30.01 in 6.2 mi Calm Calm - N/A   Mostly Cloudy
11:00 AM 69.8 °F - 64.4 °F 83% 30.01 in 6.2 mi Variable 1.2 mph - N/A   Mostly Cloudy
11:30 AM 69.8 °F - 64.4 °F 83% 30.01 in 5.0 mi Variable 1.2 mph - N/A   Mostly Cloudy
12:00 PM 71.6 °F - 64.4 °F 78% 30.01 in 3.7 mi North 3.5 mph - N/A   Mostly Cloudy
1:00 PM 73 °F - 64 °F 66% 29.94 in 4 mi WSW 2.3 mph - -   Mostly Cloudy
1:00 PM 73.4 °F - 64.4 °F 73% 30.01 in 3.7 mi Variable 2.3 mph - N/A   Mostly Cloudy
1:30 PM 73.4 °F - 64.4 °F 73% 29.98 in 3.7 mi WSW 4.6 mph - N/A   Mostly Cloudy
2:00 PM 75.2 °F - 64.4 °F 69% 29.98 in 3.7 mi West 5.8 mph - N/A   Mostly Cloudy
2:30 PM 75.2 °F - 64.4 °F 69% 29.98 in 4.3 mi WSW 6.9 mph - N/A   Mostly Cloudy
3:00 PM 77.0 °F - 64.4 °F 65% 29.98 in 5.0 mi WSW 4.6 mph - N/A   Mostly Cloudy
3:30 PM 78.8 °F - 64.4 °F 61% 29.95 in 6.2 mi WSW 3.5 mph - N/A   Mostly Cloudy
4:00 PM 79 °F - 66 °F 55% 29.88 in 6 mi NNW 3.5 mph - -   Partly Cloudy
4:00 PM 78.8 °F - 64.4 °F 61% 29.95 in 6.2 mi NNW 4.6 mph - N/A   Scattered Clouds
4:30 PM 80.6 °F 82.3 °F 64.4 °F 58% 29.95 in 6.2 mi West 4.6 mph - N/A   Scattered Clouds
5:00 PM 80.6 °F 82.3 °F 64.4 °F 58% 29.95 in 6.2 mi Variable 2.3 mph - N/A   Scattered Clouds
5:30 PM 80.6 °F 82.3 °F 64.4 °F 58% 29.95 in 6.2 mi Variable 3.5 mph - N/A   Scattered Clouds
6:00 PM 80.6 °F 82.3 °F 64.4 °F 58% 29.95 in 6.2 mi WSW 4.6 mph - N/A   Partly Cloudy
6:30 PM 80.6 °F 82.3 °F 64.4 °F 58% 29.95 in 6.2 mi WSW 5.8 mph - N/A   Partly Cloudy
7:00 PM 80 °F - 64 °F 50% 29.87 in 6 mi WSW 6.9 mph - -  
7:00 PM 80.6 °F 82.3 °F 64.4 °F 58% 29.95 in - WSW 6.9 mph - N/A   Clear
7:30 PM 78.8 °F - 64.4 °F 61% 29.95 in - West 5.8 mph - N/A   Clear
8:00 PM 77.0 °F - 64.4 °F 65% 29.98 in - WSW 4.6 mph - N/A   Clear
8:30 PM 77.0 °F - 64.4 °F 65% 29.98 in - WSW 4.6 mph - N/A   Clear
9:00 PM 75.2 °F - 64.4 °F 69% 29.98 in - West 5.8 mph - N/A   Clear
9:30 PM 75.2 °F - 62.6 °F 65% 29.98 in 5.0 mi WNW 8.1 mph - N/A   Mostly Cloudy
9:46 PM 75 °F - 60 °F 49% 29.93 in 5 mi NNW 9.2 mph - -   Mostly Cloudy
10:00 PM 75.2 °F - 59.0 °F 57% 30.01 in 5.0 mi NNW 9.2 mph - N/A   Mostly Cloudy
10:30 PM 73.4 °F - 59.0 °F 61% 30.01 in 6.2 mi NNW 5.8 mph - N/A   Scattered Clouds
11:00 PM 73.4 °F - 59.0 °F 61% 30.01 in 6.2 mi North 6.9 mph - N/A   Partly Cloudy
11:30 PM 73.4 °F - 59.0 °F 61% 30.01 in 6.2 mi North 3.5 mph - N/A   Partly Cloudy